Temp
-23 -23 -23 -23 -23 -23 -23 -24 -24 -25 -27 -27 -28 -28 -29 -29 -29 -29 -28 -28 -28 -27 -26 -24 -24 -23 -23 -22 -22 -22 -22 -21 -20 -20 -20 -19 -19 -19 -20 -19 -18 -18 -18 -17
-23 -23 -23 -23 -23 -24 -24 -24 -26 -26 -27 -27 -28 -28 -29 -29 -29 -29 -28 -28 -28 -27 -27 -26 -25 -24 -24 -23 -23 -21 -22 -21 -20 -20 -20 -20 -20 -19 -20 -20 -20 -19 -19 -18
-23 -24 -24 -24 -24 -24 -24 -25 -26 -27 -27 -27 -28 -29 -29 -29 -29 -28 -28 -28 -28 -28 -27 -27 -26 -25 -24 -23 -23 -23 -22 -22 -21 -21 -20 -21 -20 -19 -20 -20 -20 -20 -19 -19
-24 -24 -24 -24 -24 -24 -25 -26 -27 -27 -27 -27 -28 -29 -29 -29 -29 -29 -28 -28 -28 -27 -27 -27 -27 -26 -25 -25 -24 -23 -23 -22 -22 -21 -21 -20 -20 -20 -20 -20 -20 -20 -19 -19
-24 -25 -25 -24 -25 -25 -26 -26 -27 -27 -28 -28 -28 -29 -29 -29 -29 -29 -28 -28 -28 -27 -27 -26 -26 -26 -26 -26 -25 -23 -23 -22 -22 -20 -21 -21 -21 -20 -20 -20 -20 -20 -19 -19
-25 -25 -25 -25 -25 -25 -26 -27 -27 -27 -28 -28 -28 -29 -29 -29 -29 -28 -28 -28 -28 -27 -26 -26 -26 -25 -24 -24 -24 -24 -23 -24 -23 -24 -21 -22 -21 -20 -20 -19 -20 -20 -19 -19
-25 -25 -25 -25 -25 -26 -26 -27 -27 -27 -28 -28 -29 -29 -29 -29 -29 -29 -28 -28 -28 -28 -27 -26 -25 -25 -25 -24 -24 -24 -24 -24 -23 -23 -23 -23 -23 -21 -21 -20 -19 -20 -19 -19
-25 -25 -25 -25 -26 -26 -27 -27 -28 -28 -28 -28 -29 -29 -29 -29 -29 -29 -29 -28 -28 -28 -28 -27 -26 -26 -25 -25 -25 -25 -25 -24 -25 -24 -23 -23 -24 -22 -21 -21 -20 -20 -20 -19
-26 -25 -26 -26 -26 -26 -27 -28 -28 -28 -28 -29 -29 -29 -29 -29 -29 -29 -29 -29 -28 -28 -28 -28 -27 -26 -25 -25 -25 -25 -25 -24 -24 -24 -24 -23 -23 -22 -22 -21 -21 -21 -20 -20
-26 -26 -26 -26 -26 -26 -27 -28 -28 -28 -28 -29 -29 -29 -29 -29 -29 -29 -29 -29 -29 -28 -28 -28 -28 -27 -26 -26 -26 -25 -25 -24 -23 -23 -23 -23 -23 -22 -22 -22 -21 -21 -20 -20
-26 -26 -26 -26 -26 -27 -28 -28 -28 -28 -29 -29 -30 -29 -30 -29 -29 -29 -29 -29 -29 -28 -28 -28 -27 -27 -27 -26 -26 -26 -25 -25 -23 -23 -23 -22 -22 -22 -22 -21 -21 -21 -21 -21
-26 -26 -26 -26 -26 -27 -28 -28 -28 -28 -29 -29 -29 -30 -30 -30 -29 -29 -29 -29 -29 -28 -28 -28 -27 -27 -27 -26 -26 -25 -25 -24 -24 -23 -22 -23 -22 -22 -22 -22 -21 -21 -21 -21
-26 -27 -26 -26 -27 -27 -27 -27 -27 -28 -28 -29 -29 -30 -29 -30 -29 -28 -29 -29 -29 -28 -28 -28 -28 -27 -26 -26 -25 -24 -23 -23 -23 -24 -23 -23 -22 -22 -22 -22 -21 -21 -21 -21
-27 -26 -26 -27 -27 -26 -26 -27 -27 -28 -29 -29 -30 -30 -30 -30 -29 -29 -29 -29 -29 -28 -28 -28 -27 -27 -26 -26 -25 -25 -24 -24 -24 -23 -23 -23 -23 -23 -23 -22 -22 -22 -22 -21
-27 -26 -26 -26 -26 -26 -27 -27 -27 -28 -29 -29 -30 -30 -30 -30 -30 -29 -29 -29 -29 -28 -28 -28 -28 -27 -27 -26 -25 -25 -24 -24 -24 -23 -23 -23 -23 -23 -23 -22 -23 -22 -22 -22
-27 -27 -27 -26 -26 -26 -26 -27 -28 -29 -29 -30 -30 -31 -31 -30 -30 -29 -29 -29 -28 -28 -28 -28 -28 -27 -27 -26 -26 -25 -24 -24 -24 -23 -23 -23 -23 -23 -23 -23 -23 -22 -22 -22
-27 -27 -27 -27 -26 -26 -27 -28 -28 -29 -30 -30 -30 -30 -30 -30 -29 -28 -28 -28 -28 -28 -28 -28 -28 -27 -27 -26 -26 -25 -25 -24 -24 -23 -23 -22 -23 -23 -22 -22 -23 -22 -22 -22
-28 -27 -27 -27 -27 -27 -27 -28 -29 -30 -30 -30 -30 -30 -30 -30 -29 -28 -28 -28 -28 -27 -27 -28 -27 -27 -27 -26 -26 -25 -25 -25 -24 -24 -24 -23 -23 -23 -22 -23 -22 -22 -22 -22
-28 -28 -28 -27 -26 -27 -28 -29 -29 -29 -29 -29 -29 -30 -29 -29 -29 -29 -28 -28 -27 -27 -27 -27 -27 -27 -26 -26 -26 -26 -25 -25 -25 -24 -24 -24 -23 -23 -23 -23 -23 -23 -23 -23
-29 -28 -27 -27 -28 -28 -28 -29 -29 -29 -28 -29 -29 -29 -29 -28 -29 -28 -28 -27 -27 -27 -27 -27 -26 -26 -26 -26 -26 -26 -25 -25 -24 -24 -24 -24 -23 -23 -23 -23 -23 -23 -23 -22
-29 -28 -28 -28 -28 -29 -29 -29 -28 -27 -28 -28 -29 -28 -28 -28 -28 -28 -28 -27 -27 -26 -26 -26 -26 -25 -25 -25 -25 -25 -25 -25 -24 -24 -24 -24 -23 -23 -23 -23 -23 -23 -23 -22
-28 -28 -28 -28 -29 -29 -29 -28 -27 -27 -28 -28 -28 -28 -27 -28 -27 -27 -27 -27 -27 -27 -26 -26 -25 -26 -25 -25 -25 -25 -24 -24 -24 -24 -24 -23 -23 -23 -23 -23 -23 -23 -22 -23
-28 -29 -29 -29 -29 -29 -28 -27 -27 -27 -27 -28 -28 -27 -27 -27 -27 -27 -27 -27 -27 -27 -26 -26 -26 -25 -25 -25 -24 -24 -24 -24 -24 -24 -24 -24 -24 -24 -23 -23 -23 -23 -23 -23
-29 -29 -29 -28 -28 -28 -27 -28 -28 -28 -28 -27 -27 -27 -27 -27 -27 -27 -27 -27 -27 -27 -26 -26 -26 -26 -26 -25 -25 -25 -25 -25 -25 -25 -24 -24 -24 -24 -23 -23 -23 -23 -23 -23
-29 -29 -28 -28 -28 -28 -28 -28 -28 -29 -28 -27 -27 -27 -27 -27 -27 -27 -27 -27 -27 -26 -26 -26 -26 -26 -26 -26 -26 -26 -26 -25 -25 -25 -25 -25 -25 -24 -24 -24 -24 -23 -23 -23
-29 -29 -28 -28 -28 -29 -29 -29 -28 -28 -28 -28 -28 -27 -27 -27 -27 -27 -27 -27 -27 -26 -26 -26 -26 -26 -26 -26 -26 -26 -26 -26 -26 -25 -25 -25 -25 -24 -24 -24 -24 -23 -23 -23
-29 -29 -29 -28 -29 -29 -29 -29 -29 -28 -28 -28 -27 -27 -27 -27 -27 -27 -27 -27 -27 -27 -26 -26 -26 -26 -26 -26 -26 -26 -26 -26 -26 -26 -26 -25 -25 -25 -24 -24 -24 -24 -23 -23
Height
5565 5563 5561 5557 5554 5550 5544 5536 5529 5523 5518 5516 5513 5511 5508 5507 5504 5502 5503 5503 5504 5509 5508 5515 5515 5521 5517 5523 5528 5534 5541 5548 5557 5563 5566 5571 5576 5582 5587 5589 5596 5599 5602 5606
5554 5552 5550 5547 5544 5541 5534 5527 5519 5517 5514 5510 5508 5507 5506 5504 5502 5501 5502 5504 5504 5505 5505 5507 5511 5511 5515 5519 5521 5526 5536 5544 5551 5558 5562 5566 5569 5573 5578 5584 5589 5591 5597 5599
5544 5542 5539 5537 5534 5531 5525 5520 5513 5510 5508 5505 5504 5504 5504 5503 5500 5500 5499 5501 5501 5499 5503 5504 5506 5510 5512 5516 5520 5526 5532 5538 5543 5549 5554 5560 5563 5567 5571 5577 5581 5582 5588 5592
5533 5531 5530 5527 5525 5522 5516 5512 5508 5504 5502 5500 5500 5500 5501 5500 5499 5498 5497 5498 5498 5497 5500 5501 5502 5505 5509 5513 5516 5524 5528 5533 5537 5542 5548 5553 5558 5561 5565 5569 5573 5578 5582 5587
5522 5521 5519 5517 5516 5512 5508 5504 5501 5499 5496 5495 5495 5495 5496 5498 5497 5497 5496 5496 5496 5496 5496 5498 5500 5502 5504 5510 5512 5516 5524 5531 5534 5534 5541 5548 5554 5554 5558 5563 5566 5571 5575 5579
5512 5511 5510 5508 5506 5504 5499 5494 5493 5493 5491 5490 5490 5490 5491 5493 5493 5494 5494 5494 5495 5495 5495 5496 5496 5497 5503 5506 5511 5514 5520 5526 5530 5528 5532 5540 5544 5550 5552 5557 5563 5567 5571 5573
5502 5502 5501 5500 5497 5495 5492 5488 5487 5487 5486 5485 5484 5484 5486 5488 5489 5490 5492 5493 5494 5494 5494 5495 5496 5499 5502 5505 5510 5514 5518 5523 5524 5525 5530 5535 5540 5543 5548 5553 5557 5561 5564 5569
5492 5492 5492 5491 5488 5486 5484 5481 5480 5480 5480 5479 5479 5480 5481 5484 5486 5487 5488 5490 5491 5492 5492 5494 5495 5498 5502 5503 5508 5512 5513 5518 5521 5523 5528 5533 5537 5542 5545 5551 5554 5557 5561 5565
5482 5483 5483 5482 5479 5478 5476 5474 5473 5473 5474 5475 5475 5476 5477 5479 5482 5484 5485 5486 5487 5489 5491 5491 5492 5495 5497 5501 5504 5506 5508 5512 5518 5522 5526 5531 5535 5539 5542 5547 5550 5553 5556 5560
5473 5474 5474 5473 5471 5470 5469 5467 5467 5468 5468 5470 5471 5472 5473 5474 5476 5479 5482 5483 5486 5487 5489 5490 5491 5493 5494 5497 5500 5502 5503 5506 5511 5517 5520 5527 5532 5538 5541 5544 5549 5550 5553 5555
5465 5466 5466 5465 5463 5462 5461 5460 5462 5463 5465 5465 5466 5466 5467 5467 5470 5474 5478 5481 5484 5486 5487 5490 5490 5491 5492 5495 5497 5500 5500 5500 5505 5510 5515 5525 5528 5533 5539 5540 5542 5548 5551 5553
5456 5457 5458 5457 5456 5454 5454 5455 5457 5459 5460 5461 5460 5461 5460 5460 5463 5469 5474 5478 5481 5483 5485 5485 5487 5490 5493 5494 5496 5498 5500 5498 5500 5506 5514 5517 5522 5527 5533 5535 5538 5543 5547 5550
5447 5449 5450 5450 5449 5448 5450 5451 5454 5456 5456 5456 5457 5456 5455 5456 5459 5464 5471 5475 5477 5480 5482 5484 5486 5489 5490 5492 5493 5495 5495 5495 5499 5503 5508 5513 5519 5525 5528 5532 5535 5539 5542 5544
5439 5442 5443 5444 5443 5446 5447 5449 5451 5452 5453 5454 5453 5453 5452 5453 5457 5461 5466 5469 5474 5477 5480 5481 5485 5486 5487 5488 5489 5490 5492 5494 5499 5503 5508 5512 5515 5519 5524 5528 5532 5534 5536 5539
5431 5435 5438 5439 5441 5443 5445 5446 5448 5450 5452 5450 5451 5452 5452 5452 5454 5457 5461 5465 5470 5475 5477 5480 5483 5484 5486 5486 5489 5490 5491 5492 5498 5502 5505 5508 5510 5515 5520 5523 5527 5530 5532 5535
5424 5428 5432 5435 5438 5439 5442 5444 5446 5447 5447 5448 5449 5451 5451 5451 5452 5455 5458 5462 5467 5472 5476 5479 5481 5482 5484 5485 5488 5490 5490 5493 5500 5501 5503 5506 5508 5512 5516 5519 5522 5524 5527 5529
5417 5422 5427 5430 5434 5437 5441 5444 5444 5445 5447 5448 5449 5449 5450 5451 5453 5455 5458 5462 5466 5469 5472 5478 5479 5481 5482 5485 5487 5488 5489 5491 5493 5495 5499 5503 5507 5510 5512 5514 5517 5521 5523 5524
5412 5417 5422 5426 5429 5433 5438 5440 5442 5445 5446 5446 5448 5448 5450 5451 5453 5455 5457 5460 5464 5467 5472 5476 5477 5478 5481 5484 5486 5486 5486 5488 5489 5491 5494 5496 5499 5504 5507 5510 5513 5516 5518 5520
5408 5413 5418 5421 5425 5432 5435 5438 5440 5443 5446 5445 5447 5448 5449 5451 5454 5455 5456 5458 5463 5467 5470 5474 5476 5477 5480 5482 5484 5485 5485 5485 5487 5489 5490 5495 5498 5503 5505 5507 5509 5511 5513 5514
5405 5408 5414 5421 5426 5428 5432 5435 5437 5439 5441 5445 5447 5449 5450 5453 5454 5455 5457 5458 5462 5465 5470 5469 5473 5475 5477 5479 5481 5483 5484 5485 5486 5488 5491 5492 5495 5497 5499 5502 5504 5506 5507 5509
5399 5407 5415 5418 5421 5426 5429 5431 5436 5438 5442 5445 5448 5449 5451 5453 5455 5456 5457 5458 5461 5464 5468 5468 5469 5472 5476 5476 5476 5478 5480 5483 5485 5487 5487 5488 5491 5492 5493 5493 5496 5498 5499 5501
5404 5410 5414 5417 5420 5422 5425 5428 5434 5438 5442 5445 5448 5449 5451 5453 5454 5456 5458 5458 5460 5462 5464 5466 5467 5469 5469 5471 5473 5474 5475 5477 5480 5482 5483 5484 5485 5486 5487 5489 5489 5490 5491 5493
5402 5407 5411 5415 5417 5418 5421 5424 5433 5437 5442 5445 5447 5449 5450 5452 5454 5455 5455 5457 5459 5461 5462 5464 5466 5467 5468 5470 5472 5473 5474 5475 5476 5477 5478 5478 5478 5479 5480 5481 5482 5483 5483 5484
5402 5406 5409 5412 5413 5417 5421 5426 5432 5436 5438 5441 5445 5447 5449 5451 5453 5454 5455 5456 5458 5459 5461 5463 5463 5464 5465 5467 5468 5469 5470 5470 5471 5471 5471 5471 5470 5470 5471 5472 5473 5473 5474 5474
5400 5405 5408 5411 5415 5418 5421 5425 5429 5433 5435 5439 5442 5444 5446 5448 5450 5452 5453 5455 5455 5457 5459 5459 5460 5461 5462 5463 5463 5464 5464 5464 5464 5465 5464 5464 5464 5464 5464 5464 5464 5464 5464 5464
5401 5406 5410 5412 5413 5416 5419 5423 5427 5431 5434 5437 5439 5440 5443 5445 5446 5449 5450 5451 5453 5454 5454 5455 5455 5456 5456 5457 5457 5457 5457 5457 5457 5457 5456 5456 5456 5455 5455 5454 5454 5454 5453 5453
5403 5407 5409 5410 5412 5415 5419 5423 5426 5429 5432 5435 5437 5438 5440 5441 5442 5445 5446 5447 5447 5446 5447 5447 5447 5448 5449 5449 5449 5449 5450 5450 5450 5450 5450 5449 5448 5446 5445 5444 5444 5443 5442 5441
Wind_Speed
46 47 47 49 49 49 49 51 51 39 24 21 15 11 11 12 11 20 16 20 14 17 30 12 15 6 17 44 41 37 44 45 45 42 39 41 41 40 42 44 42 40 40 36
45 45 46 46 46 46 48 47 41 30 22 19 17 18 14 11 8 11 13 16 18 20 27 25 8 11 10 16 10 20 35 39 38 36 34 37 38 40 39 41 38 40 39 38
43 42 43 43 43 44 45 39 34 29 23 19 17 17 14 12 8 9 13 16 27 23 19 26 26 8 20 21 19 13 22 26 37 35 33 29 30 35 36 39 43 44 45 42
42 42 40 41 41 42 38 34 30 27 27 22 19 17 17 13 12 10 13 16 17 26 26 27 29 27 7 7 29 22 16 28 22 36 37 34 27 29 36 39 42 43 43 38
40 37 37 37 39 40 33 31 29 28 26 23 21 21 20 16 15 13 14 13 15 22 24 25 30 32 28 16 20 28 28 23 22 37 34 36 33 21 34 40 40 36 37 38
37 35 35 35 38 37 29 30 28 24 22 23 23 23 18 16 18 17 16 10 11 14 20 22 28 35 35 25 27 29 36 25 16 8 23 13 21 37 25 36 39 41 34 27
35 34 33 35 37 33 29 28 27 22 19 20 24 28 27 17 18 17 21 16 11 12 16 19 25 33 35 34 33 33 35 35 19 13 18 19 13 22 20 29 32 19 24 34
34 33 31 34 34 31 29 29 26 24 22 21 22 25 30 25 21 19 18 22 21 18 14 15 20 21 22 26 27 30 31 27 35 28 14 16 12 18 22 21 21 24 18 26
32 30 31 33 32 30 28 28 26 23 23 21 21 19 21 26 29 25 21 19 21 18 9 9 13 19 23 25 27 30 28 27 29 32 29 21 19 18 22 18 22 18 18 18
30 30 31 30 30 29 25 26 24 21 19 19 20 20 21 21 23 29 28 24 18 15 10 8 11 11 16 17 16 18 25 28 32 27 33 30 27 25 23 23 25 20 19 19
29 30 29 28 28 28 23 25 20 18 16 18 21 23 21 24 25 25 25 22 18 15 9 6 10 11 14 16 13 4 13 21 28 27 29 28 30 29 28 28 30 24 22 21
30 30 27 26 27 26 19 20 19 15 11 15 19 18 19 23 28 26 25 21 18 18 15 10 9 10 12 16 10 5 13 19 20 26 21 20 25 27 27 25 27 24 25 23
31 27 24 23 24 17 13 16 16 12 13 18 15 15 14 17 25 26 22 22 21 20 17 15 10 10 7 13 12 6 6 14 16 21 23 23 28 25 24 22 27 22 19 18
30 23 21 21 16 12 12 14 13 13 15 14 16 7 4 12 20 21 23 26 23 22 16 15 14 14 12 17 8 14 5 9 17 21 23 23 24 19 23 24 19 25 21 21
26 22 20 13 13 14 15 13 11 13 14 15 12 7 4 2 10 18 23 28 26 23 22 16 14 15 17 19 8 6 11 15 16 17 15 15 18 23 23 24 27 25 23 23
24 23 24 20 18 18 16 13 10 9 13 12 8 7 8 6 5 12 19 28 26 25 23 17 12 13 16 21 10 4 9 18 14 5 10 14 17 20 21 19 19 21 24 24
25 24 26 23 22 17 10 10 11 11 11 10 13 13 10 8 7 9 11 20 23 27 28 13 13 16 14 17 11 5 10 15 13 17 13 15 8 18 25 25 20 19 17 14
24 24 24 23 22 20 14 13 14 14 12 11 11 8 7 7 5 6 9 15 23 28 22 15 14 16 14 15 11 9 8 11 18 8 7 18 20 30 30 28 27 26 24 23
21 21 23 25 24 16 18 17 16 17 16 6 12 12 10 11 7 1 5 13 22 27 20 16 14 11 11 12 12 13 13 14 15 17 13 9 13 14 21 20 20 18 14 18
25 25 24 19 14 18 19 20 18 20 13 13 16 13 9 8 5 3 3 14 23 26 19 18 15 13 12 14 15 16 19 19 21 23 24 24 19 19 23 21 22 25 22 21
29 24 16 15 17 18 22 23 19 15 19 20 15 11 10 6 10 7 6 12 17 18 20 23 21 18 14 17 19 19 23 23 23 26 28 28 29 31 30 30 28 24 25 28
20 16 16 15 18 23 24 24 25 24 24 21 16 13 10 10 6 9 4 7 9 7 17 22 18 14 15 19 19 23 28 29 29 29 29 32 36 36 39 37 33 32 30 31
23 22 21 18 20 26 26 23 23 24 21 20 17 15 12 11 10 7 0 11 8 5 9 7 11 14 18 20 21 25 29 31 32 32 34 34 36 39 40 41 40 39 39 39
26 24 23 22 22 19 19 16 13 22 23 25 19 16 17 16 13 10 8 11 11 12 9 12 7 13 12 13 15 18 20 22 23 23 23 25 27 28 31 34 35 35 35 34
27 25 22 19 13 13 14 12 16 18 23 21 21 21 23 24 18 19 17 15 16 13 12 14 14 13 16 15 15 16 17 18 18 19 20 20 21 23 24 26 27 28 29 29
24 17 11 11 11 13 14 14 14 16 15 14 15 17 19 24 26 26 26 25 23 22 20 19 19 20 23 24 23 22 22 22 23 23 24 25 26 27 28 30 31 32 33 34
16 11 10 9 10 13 16 16 14 16 15 15 15 13 13 15 19 19 22 23 24 25 25 25 24 25 27 28 27 27 28 27 27 26 27 28 30 30 31 33 34 35 35 37
Wind_Direction
285 289 292 296 299 303 307 312 315 313 296 299 273 286 290 294 264 268 244 232 224 244 226 184 130 142 198 213 222 218 224 223 219 223 223 222 223 219 222 230 237 240 246 251
284 288 292 295 299 303 310 316 311 298 289 286 261 280 300 302 269 257 250 233 226 260 246 234 174 145 224 203 222 193 213 219 221 217 225 225 222 221 216 222 233 238 242 247
283 286 290 294 299 304 312 313 305 284 282 280 251 282 279 300 280 250 252 234 230 253 241 256 241 210 261 226 215 216 214 218 223 216 215 217 228 225 224 223 228 231 235 244
280 284 289 293 299 306 313 306 301 284 277 271 263 247 260 273 252 246 256 241 247 250 247 247 257 245 195 254 254 244 252 238 256 218 217 211 216 229 223 228 230 232 236 237
277 281 284 293 299 306 307 298 298 288 273 267 262 247 239 247 249 249 253 249 251 249 255 248 248 249 241 239 249 251 235 224 222 184 192 208 219 215 217 232 230 229 240 233
274 279 285 290 299 307 297 292 291 286 275 265 253 245 243 231 240 250 225 235 249 253 252 252 253 246 229 236 229 246 238 236 206 165 166 200 218 207 214 212 237 233 229 225
271 276 281 290 299 302 292 287 282 278 271 267 253 239 242 230 238 243 231 239 239 252 240 241 244 244 249 252 246 251 257 248 238 202 173 184 228 244 242 228 229 225 241 230
269 274 280 289 298 297 292 284 278 268 267 259 255 246 239 234 232 243 251 242 243 258 247 235 233 237 237 241 246 248 254 254 253 246 225 190 218 242 249 242 235 239 238 227
265 269 278 290 293 292 287 276 275 267 262 252 250 251 247 245 240 241 244 242 243 232 237 241 232 229 236 241 248 252 255 254 253 253 251 228 223 241 256 255 240 235 235 237
259 266 277 288 289 285 279 266 268 267 258 240 242 247 252 245 240 234 240 246 255 225 227 240 210 219 225 219 221 241 253 251 252 250 249 245 239 236 249 258 240 235 240 237
256 265 277 286 283 281 274 258 259 263 251 243 257 260 251 242 231 226 235 242 240 217 194 172 245 222 200 183 167 202 244 249 245 237 240 244 247 249 242 244 237 233 239 243
252 263 277 278 277 280 264 249 254 271 256 250 256 269 263 241 224 220 226 229 231 207 196 216 220 230 214 181 188 237 253 238 224 228 224 223 231 237 234 229 227 235 235 240
247 260 271 270 273 265 244 243 247 232 245 244 250 265 261 231 225 216 214 221 223 209 205 216 202 171 195 225 200 42 218 210 197 203 204 212 222 221 209 219 225 231 227 234
243 256 259 260 238 225 227 236 243 236 234 243 238 288 298 235 226 220 209 216 215 207 204 214 208 199 209 218 224 42 46 198 201 201 207 216 205 194 199 206 223 235 237 238
236 242 232 210 201 219 237 245 236 230 233 244 242 243 247 232 226 222 204 210 211 208 212 220 223 234 239 224 240 11 71 158 173 184 192 201 201 204 207 222 223 226 238 242
228 229 218 211 220 232 242 244 235 226 213 224 222 240 268 215 209 201 208 206 207 206 208 220 227 256 241 236 240 89 128 114 161 218 216 222 202 193 207 210 219 230 232 244
225 218 215 212 220 230 237 229 232 225 224 227 227 240 250 237 227 209 204 202 203 206 204 225 244 236 244 239 237 207 137 173 130 94 126 199 208 209 192 210 226 229 238 242
212 208 213 214 222 221 220 217 212 217 234 251 224 196 191 195 213 209 204 200 206 213 210 216 224 231 237 235 242 235 220 197 205 208 139 148 165 202 219 228 242 246 247 253
196 201 207 212 219 213 204 206 200 221 229 226 170 169 153 133 125 86 198 188 209 208 216 211 225 235 237 238 238 241 243 251 243 240 244 223 206 222 216 228 236 236 254 266
184 195 207 208 205 204 205 202 202 222 220 182 163 155 159 154 166 238 214 182 206 215 221 236 232 235 245 247 243 240 244 246 247 246 246 250 252 251 251 251 253 244 253 266
196 197 183 190 194 197 202 210 193 189 158 164 177 180 191 182 173 185 177 179 207 220 222 240 252 249 242 244 249 243 244 245 247 250 260 262 256 254 254 264 272 270 261 265
191 182 186 199 199 205 209 211 184 172 169 173 186 195 195 177 169 197 208 199 184 206 221 235 238 242 241 235 230 245 255 259 261 263 261 260 257 259 258 260 267 266 266 268
184 189 193 204 214 213 216 218 188 179 180 188 198 206 211 193 186 196 135 195 194 183 180 218 203 216 217 225 228 236 240 244 250 254 258 261 259 258 257 261 264 266 267 267
191 193 196 203 219 229 225 228 198 198 210 204 209 213 214 207 209 211 202 212 211 225 242 240 200 203 205 220 228 235 242 246 252 258 260 260 259 258 259 262 265 265 263 262
189 193 202 212 231 226 218 221 199 199 212 216 220 225 216 216 216 217 227 235 238 242 245 245 230 220 228 240 258 258 258 263 266 265 263 262 260 258 258 259 260 261 261 261
183 192 202 212 203 200 198 194 195 205 207 205 208 221 223 227 230 236 245 250 258 263 269 269 264 258 254 257 257 258 264 268 273 279 282 283 283 282 280 279 277 276 274 273
163 173 180 179 180 180 168 169 186 195 200 202 214 225 238 232 235 243 252 260 265 266 270 272 269 261 261 264 265 264 264 269 274 278 284 286 284 283 282 281 281 280 279 279